Regional Weather Roundup
Issued by NWS Green Bay, WI

Home | Current Version | Previous Version | Text Only | Print | Product List | Glossary On
Versions: 1 2 3 4 5 6 7 8 9 10 11 12 13 14 15 16 17 18 19 20 21 22 23 24 25 26 27 28 29 30 31 32 33 34 35 36 37 38 39 40 41 42 43 44 45 46 47 48 49 50
000
ASUS43 KGRB 300700
RWRGRB

NORTH-CENTRAL AND NORTHEAST WISCONSIN REGIONAL WEATHER ROUNDUP
NATIONAL WEATHER SERVICE GREEN BAY WI
200 AM CDT THU JUL 30 2015

WIZ005-009-010>012-018-019-300800-
NORTH CENTRAL WISCONSIN

CITY           SKY/WX    TMP DP  RH WIND       PRES   REMARKS
IRONWOOD       CLEAR     66  54  63 W13       29.83S
MANITOWISH WTR NOT AVBL
ARBOR VITAE    NOT AVBL
EAGLE RIVER    NOT AVBL
LAND O LAKES   NOT AVBL
RHINELANDER    CLEAR     65  53  65 W15       29.91F
PHILLIPS       CLEAR     63  54  72 SW5       29.92S
ANTIGO         NOT AVBL
TOMAHAWK       NOT AVBL
MERRILL        NOT AVBL
$$

WIZ013-073-300800-
NORTHEAST WISCONSIN

CITY           SKY/WX    TMP DP  RH WIND       PRES   REMARKS
IRON MOUNTAIN  CLEAR     68  54  60 W9        29.83F
MARINETTE      CLEAR     68  54  60 W5        29.85F
$$

WIZ017-030-035>037-045-300800-
CENTRAL WISCONSIN

CITY           SKY/WX    TMP DP  RH WIND       PRES   REMARKS
MEDFORD        NOT AVBL
WAUSAU         CLEAR     68  54  60 W15G24    29.93S
MOSINEE        NOT AVBL
MARSHFIELD     CLEAR     64  53  67 W9        29.97S
WISC RAPIDS    CLEAR     67  53  61 W8        29.98S
STEVENS POINT  NOT AVBL
WAUPACA        NOT AVBL
SHAWANO        NOT AVBL
CLINTONVILLE   CLEAR     64  54  68 SW6       29.92S
$$

WIZ038-039-048-051-300800-
FOX VALLEY

CITY           SKY/WX    TMP DP  RH WIND       PRES   REMARKS
NWS GREEN BAY  CLEAR     69  55  60 W8        29.91F
APPLETON       NOT AVBL
OSHKOSH        CLEAR     69  53  56 W6        29.94F
FOND DU LAC    CLEAR     65  55  70 SW7       29.96F
$$

WIZ022-050-052-300800-
EAST CENTRAL WISCONSIN

CITY           SKY/WX    TMP DP  RH WIND       PRES   REMARKS
STURGEON BAY   CLEAR     70  55  60 W12       29.90S
MANITOWOC      NOT AVBL
SHEBOYGAN      CLEAR     62  54  74 SW6       29.94F
$$

LMZ563-521-522-541>543-300800-
LAKESHORE

STATION/POSITION TIME  TEMP    WIND        PRES    VSBY  WAVE
                       AIR SEA DIR/SP/G                  HT/PER
                 (UTC) (F)     (DEG/KT/KT) (MB)    (MI)  (FT/S)
SHEBOYGAN LKSHOR 0600   70     240/ 11/ 12 1014.0R
ALGOMA MARINA    0612          250/  5/  8   N/A
NORTHPORT PIER   0600   74     270/  6/ 16 1010.5S
N MID LAKE BUOY  0550   73 70  240/ 16/ 19 1009.3F         2/ 4
SISTER BAY LKSHO 0614   74     270/ 19/ 22   N/A
CHAMBERS ISLAND  0600   71     220/  8/ 16 1010.8S
MENOMINEE LKSHOR 0618   71                 1012.0
$$


USA.gov is the U.S. government's official web portal to all federal, state and local government web resources and services.